DW8871 Weather Reports


Display with metric or nautical units.
time (UTC)temp
F
wind
direction
speed
MPH
gust
MPH
rain 1hr
in
rain 24hr
in
rain mn
in
humidity
%
barometer
mb
20260503231534 80 0 0.0 4.0 0.00 0.00 0.00 36 1008.1
20260503230030 79 49 0.0 2.0 0.00 0.00 0.00 38 1008.3
20260503224528 81 0 0.0 4.0 0.00 0.00 0.00 35 1008.3
20260503223030 81 0 0.0 6.0 0.00 0.00 0.00 36 1008.4
20260503221536 81 0 1.0 6.0 0.00 0.00 0.00 37 1008.6
20260503220032 81 278 1.0 8.0 0.00 0.00 0.00 35 1008.8
20260503214530 81 0 0.0 7.0 0.00 0.00 0.00 35 1008.9
20260503213033 81 303 3.0 9.0 0.00 0.00 0.00 34 1009.2
20260503211531 81 0 2.0 7.0 0.00 0.00 0.00 38 1009.2
20260503210030 82 0 1.0 9.0 0.00 0.00 0.00 36 1009.4
20260503204530 81 67 0.0 9.0 0.00 0.00 0.00 37 1009.6
20260503203036 81 0 1.0 7.0 0.00 0.00 0.00 37 1009.7
20260503201532 80 296 4.0 11.0 0.00 0.00 0.00 37 1009.9
20260503200032 80 0 3.0 8.0 0.00 0.00 0.00 38 1010.1
20260503194532 79 0 2.0 9.0 0.00 0.00 0.00 38 1010.2
20260503193030 79 321 1.0 9.0 0.00 0.00 0.00 38 1010.4
20260503191533 78 286 5.0 12.0 0.00 0.00 0.00 44 1010.6
20260503190032 77 0 3.0 12.0 0.00 0.00 0.00 42 1010.7
20260503184532 77 271 2.0 12.0 0.00 0.00 0.00 45 1011.0
20260503183031 75 274 3.0 15.0 0.00 0.00 0.00 47 1011.2
20260503181531 75 229 4.0 12.0 0.00 0.00 0.00 47 1011.6
20260503180029 74 281 5.0 11.0 0.00 0.00 0.00 46 1012.0
20260503174528 74 295 6.0 14.0 0.00 0.00 0.00 46 1012.2
20260503173037 73 252 7.0 17.0 0.00 0.00 0.00 47 1012.3
20260503171538 72 331 5.0 16.0 0.00 0.00 0.00 47 1012.2
20260503081531 49 0 3.0 8.0 0.00 0.00 0.00 62 1015.6
20260503071529 49 235 3.0 7.0 0.00 0.00 0.00 64 1015.9
20260503054535 48 242 2.0 6.0 0.00 0.00 0.00 67 1016.8
20260503053033 48 228 2.0 4.0 0.00 0.00 0.00 68 1016.8
20260503051528 47 0 0.0 2.0 0.00 0.00 0.00 69 1016.9
20260503050037 48 0 0.0 1.0 0.00 0.00 0.00 68 1017.2
20260503050026 48 225 0.0 1.0 0.00 0.00 0.00 68 1016.3
20260503044531 47 0 0.0 2.0 0.00 0.00 0.00 70 1017.4
20260503043030 47 0 0.0 1.0 0.00 0.00 0.00 70 1017.6
20260503041537 47 0 0.0 0.0 0.00 0.00 0.00 72 1017.6
20260503040031 48 0 0.0 0.0 0.00 0.00 0.00 72 1017.9
20260503040016 48 134 0.0 0.0 0.00 0.00 0.00 73 1017.0
20260503034532 49 0 0.0 0.0 0.00 0.00 0.00 70 1017.8
20260503033036 49 0 0.0 1.0 0.00 0.00 0.00 69 1018.1
20260503031530 49 0 0.0 0.0 0.00 0.00 0.00 73 1018.2
20260503030044 49 0 0.0 0.0 0.00 0.00 0.00 72 1018.2
20260503030029 49 284 0.0 0.0 0.00 0.00 0.00 73 1017.2
20260503024529 49 0 0.0 0.0 0.00 0.00 0.00 74 1018.1
20260503023032 49 0 0.0 1.0 0.00 0.00 0.00 73 1018.3
20260503021528 50 0 0.0 0.0 0.00 0.00 0.00 71 1018.3
20260503020035 52 284 0.0 0.0 0.00 0.00 0.00 66 1017.3
20260503020030 52 0 0.0 0.0 0.00 0.00 0.00 65 1018.3
20260503014528 53 0 0.0 0.0 0.00 0.00 0.00 59 1018.1
20260503013036 55 0 0.0 0.0 0.00 0.00 0.00 53 1018.1
20260503011531 58 0 0.0 0.0 0.00 0.00 0.00 54 1018.1
20260503010034 60 0 0.0 1.0 0.00 0.00 0.00 45 1018.1
20260503010024 60 284 0.0 1.0 0.00 0.00 0.00 46 1017.2
20260503004554 62 0 0.0 2.0 0.00 0.00 0.00 43 1018.2
20260503003030 63 281 1.0 4.0 0.00 0.00 0.00 33 1018.1
20260503001534 63 260 1.0 5.0 0.00 0.00 0.00 33 1018.3
20260503000043 63 282 2.0 5.0 0.00 0.00 0.00 35 1017.5
20260503000031 63 282 1.0 5.0 0.00 0.00 0.00 34 1018.5
20260502234537 64 253 2.0 5.0 0.00 0.00 0.00 33 1018.4
20260502233032 65 0 0.0 9.0 0.00 0.00 0.00 31 1018.5